IRIDIUM 106 1 41917U 17003A 26061.69849770 .00000134 00000+0 40700-4 0 9990 2 41917 86.3993 133.0822 0001937 105.6136 254.5274 14.34218331477943 IRIDIUM 103 1 41918U 17003B 26061.75558139 .00000138 00000+0 42210-4 0 9996 2 41918 86.3992 132.9580 0002176 86.7236 273.4208 14.34218502477978 IRIDIUM 109 1 41919U 17003C 26061.69215595 .00000059 00000+0 14004-4 0 9998 2 41919 86.3993 133.0425 0002213 95.6685 264.4763 14.34217875477933 IRIDIUM 102 1 41920U 17003D 26061.73021117 .00000185 00000+0 58930-4 0 9996 2 41920 86.3992 132.9524 0002253 97.1612 262.9840 14.34218335478025 IRIDIUM 105 1 41921U 17003E 26061.62709760 .00000316 00000+0 10542-3 0 9994 2 41921 86.3928 101.4498 0002260 93.1107 267.0347 14.34397599479860 IRIDIUM 104 1 41922U 17003F 26061.74289741 .00000095 00000+0 26960-4 0 9996 2 41922 86.3994 132.9880 0002391 89.2879 270.8591 14.34218062478011 IRIDIUM 114 1 41923U 17003G 26061.74923950 .00000071 00000+0 18118-4 0 9994 2 41923 86.3993 132.9690 0002258 90.1003 270.0452 14.34217865477996 IRIDIUM 108 1 41924U 17003H 26061.63799183 -.00000028 00000+0 -17203-4 0 9990 2 41924 86.3923 101.3339 0002213 96.9997 263.1450 14.34217261479833 IRIDIUM 112 1 41925U 17003J 26061.66678588 .00000094 00000+0 26629-4 0 9992 2 41925 86.3990 132.8505 0002341 94.5705 265.5758 14.34217886478003 IRIDIUM 111 1 41926U 17003K 26061.72386912 .00000072 00000+0 18505-4 0 9997 2 41926 86.3990 132.8947 0002137 94.9533 265.1906 14.34217633477998 IRIDIUM 113 1 42803U 17039A 26061.77360163 .00000065 00000+0 16057-4 0 9998 2 42803 86.4019 6.6372 0002294 83.1224 277.0233 14.34218035455939 IRIDIUM 123 1 42804U 17039B 26061.81507967 .00000046 00000+0 94004-5 0 9997 2 42804 86.3959 38.0774 0002039 83.2631 276.8797 14.34217369454702 IRIDIUM 120 1 42805U 17039C 26061.76725787 .00000351 00000+0 11811-3 0 9996 2 42805 86.4010 6.4364 0002077 89.4255 270.7179 14.34218515455924 IRIDIUM 115 1 42806U 17039D 26061.76506145 .00000488 00000+0 13918-3 0 9993 2 42806 86.4546 6.5513 0001876 84.1597 275.9818 14.43282899458918 IRIDIUM 118 1 42807U 17039E 26061.42818042 .00000134 00000+0 40936-4 0 9998 2 42807 86.3959 38.2382 0002260 85.9118 274.2336 14.34217531454642 IRIDIUM 117 1 42808U 17039F 26061.44720900 .00000025 00000+0 19002-5 0 9996 2 42808 86.3956 38.1892 0001967 83.5100 276.6320 14.34217666454674 IRIDIUM 126 1 42809U 17039G 26061.47257991 -.00000005 00000+0 -87435-5 0 9990 2 42809 86.3957 38.2280 0002091 82.4692 277.6741 14.34217602454657 IRIDIUM 124 1 42810U 17039H 26061.76845057 .00000493 00000+0 14052-3 0 9992 2 42810 86.4540 334.8661 0002123 83.8454 276.2988 14.43267568459764 IRIDIUM 128 1 42811U 17039J 26061.53308627 .00000037 00000+0 61778-5 0 9998 2 42811 86.3906 69.7406 0002040 95.1208 265.0221 14.34217622454691 IRIDIUM 121 1 42812U 17039K 26061.63114514 .00000008 00000+0 -42133-5 0 9993 2 42812 86.3959 38.1887 0002102 90.3560 269.7876 14.34217463454555 IRIDIUM 133 1 42955U 17061A 26061.56479941 -.00000013 00000+0 -11857-4 0 9991 2 42955 86.3911 69.8428 0002033 90.7476 269.3953 14.34217238439494 IRIDIUM 100 1 42956U 17061B 26061.55845626 -.00000003 00000+0 -82275-5 0 9990 2 42956 86.3908 69.7665 0002068 90.5317 269.6116 14.34217355439497 IRIDIUM 122 1 42957U 17061C 26061.52674140 .00000084 00000+0 22857-4 0 9995 2 42957 86.3906 69.7795 0002156 88.1412 272.0030 14.34217757439496 IRIDIUM 129 1 42958U 17061D 26061.55211492 .00000068 00000+0 17093-4 0 9994 2 42958 86.3909 69.8349 0002566 87.7337 272.4152 14.34217958439517 IRIDIUM 119 1 42959U 17061E 26061.52040130 .00000017 00000+0 -82892-6 0 9997 2 42959 86.3911 69.8436 0002160 85.8073 274.3370 14.34217654439521 IRIDIUM 107 1 42960U 17061F 26061.53942828 .00000014 00000+0 -19690-5 0 9997 2 42960 86.3909 69.8562 0001830 85.3117 274.8288 14.34217601439533 IRIDIUM 132 1 42961U 17061G 26061.54577075 .00000101 00000+0 29130-4 0 9992 2 42961 86.3910 69.8337 0002115 90.0196 270.1242 14.34217887439538 IRIDIUM 136 1 42962U 17061H 26061.50771599 .00000045 00000+0 88853-5 0 9991 2 42962 86.3908 69.8557 0002201 87.5555 272.5893 14.34217920439543 IRIDIUM 139 1 42963U 17061J 26061.51405856 .00000020 00000+0 13466-6 0 9995 2 42963 86.3911 69.9134 0001996 90.7028 269.4397 14.34217654439550 IRIDIUM 125 1 42964U 17061K 26061.57114129 .00000069 00000+0 17466-4 0 9997 2 42964 86.3911 69.9487 0002087 75.0053 285.1374 14.34217967439577 IRIDIUM 135 1 43070U 17083A 26061.75457873 .00000352 00000+0 11879-3 0 9992 2 43070 86.4016 6.4889 0002183 85.9933 274.1513 14.34217226428893 IRIDIUM 138 1 43071U 17083B 26061.77994439 .00000036 00000+0 59257-5 0 9992 2 43071 86.4028 6.1576 0002411 77.7543 282.3923 14.34217846428880 IRIDIUM 116 1 43072U 17083C 26061.81799958 .00000047 00000+0 97197-5 0 9994 2 43072 86.4013 6.4495 0002035 94.1374 266.0054 14.34217814428929 IRIDIUM 130 1 43073U 17083D 26061.78628563 .00000183 00000+0 58173-4 0 9995 2 43073 86.4020 6.7277 0001911 88.0373 272.1042 14.34218370428868 IRIDIUM 151 1 43074U 17083E 26061.76091630 .00000063 00000+0 15359-4 0 9999 2 43074 86.4014 6.5288 0002163 87.1627 272.9816 14.34217990428880 IRIDIUM 134 1 43075U 17083F 26061.79897168 .00000034 00000+0 51111-5 0 9998 2 43075 86.4019 6.5196 0002027 85.1165 275.0262 14.34217774428854 IRIDIUM 137 1 43076U 17083G 26061.81165697 .00000050 00000+0 10728-4 0 9993 2 43076 86.4019 6.6045 0002289 97.1451 263.0005 14.34218008428921 IRIDIUM 141 1 43077U 17083H 26061.80532752 .00000338 00000+0 11351-3 0 9994 2 43077 86.4014 6.4442 0002252 83.0293 277.1159 14.34219765428921 IRIDIUM 153 1 43078U 17083J 26061.75749338 .00000063 00000+0 15508-4 0 9993 2 43078 86.4015 334.9779 0002174 77.6904 282.4535 14.34217889430022 IRIDIUM 131 1 43079U 17083K 26061.79262882 .00000329 00000+0 11054-3 0 9998 2 43079 86.4019 6.6284 0002331 85.4327 274.7135 14.34216335428855 IRIDIUM 144 1 43249U 18030A 26061.76383578 -.00000054 00000+0 -26465-4 0 9993 2 43249 86.4010 334.9070 0001941 86.5176 273.6242 14.34217364414883 IRIDIUM 149 1 43250U 18030B 26061.77017829 .00000178 00000+0 56394-4 0 9998 2 43250 86.4016 334.8725 0002173 83.3070 276.8373 14.34218298414903 IRIDIUM 157 1 43251U 18030C 26061.78920585 .00000125 00000+0 37592-4 0 9993 2 43251 86.4016 334.9156 0002160 85.0187 275.1255 14.34218241414883 IRIDIUM 140 1 43252U 18030D 26061.80823392 .00000024 00000+0 14992-5 0 9993 2 43252 86.4015 334.9204 0002054 83.3465 276.7965 14.34217693414941 IRIDIUM 145 1 43253U 18030E 26061.79554770 .00000192 00000+0 61332-4 0 9998 2 43253 86.4016 334.8982 0001864 92.4949 267.6461 14.34218134414874 IRIDIUM 146 1 43254U 18030F 26061.77652049 .00000348 00000+0 11732-3 0 9996 2 43254 86.4015 334.9186 0002086 88.9730 271.1705 14.34218836414887 IRIDIUM 148 1 43255U 18030G 26061.81457598 .00000275 00000+0 91065-4 0 9991 2 43255 86.4016 334.9441 0002150 86.3415 273.8026 14.34218941414924 IRIDIUM 142 1 43256U 18030H 26061.78286279 .00000081 00000+0 21850-4 0 9994 2 43256 86.4014 334.8504 0001881 91.7758 268.3653 14.34218101414880 IRIDIUM 150 1 43257U 18030J 26061.68138113 -.00000236 00000+0 -91247-4 0 9998 2 43257 86.4021 335.0057 0002020 84.6871 275.4555 14.34215951414899 IRIDIUM 143 1 43258U 18030K 26061.80189083 .00000127 00000+0 38136-4 0 9990 2 43258 86.4018 335.0434 0001991 88.3328 271.8096 14.34218360414841 IRIDIUM 161 1 43478U 18047C 26061.74615927 .00000380 00000+0 10694-3 0 9995 2 43478 86.4514 132.9839 0002540 93.1381 267.0111 14.43282298409786 IRIDIUM 152 1 43479U 18047D 26061.70484131 .00000228 00000+0 74277-4 0 9992 2 43479 86.3987 132.8615 0002277 93.0223 267.1234 14.34218219407228 IRIDIUM 147 1 43480U 18047E 26061.71118311 .00000119 00000+0 35337-4 0 9992 2 43480 86.3989 132.8621 0002204 99.4452 260.6993 14.34218361407221 IRIDIUM 110 1 43481U 18047F 26061.71752731 .00000051 00000+0 11035-4 0 9997 2 43481 86.3991 132.9484 0002561 90.4593 269.6896 14.34217753407210 IRIDIUM 162 1 43482U 18047G 26061.73985727 .00000382 00000+0 10752-3 0 9994 2 43482 86.4511 132.8788 0002123 91.8530 268.2914 14.43281218409772 IRIDIUM 160 1 43569U 18061A 26061.59359385 .00000098 00000+0 27941-4 0 9998 2 43569 86.3926 101.3860 0002372 92.7525 267.3943 14.34218157398095 IRIDIUM 166 1 43570U 18061B 26061.61896376 .00000153 00000+0 47418-4 0 9992 2 43570 86.3922 101.3272 0002176 96.3897 263.7547 14.34218115398122 IRIDIUM 158 1 43571U 18061C 26061.65701773 -.00000037 00000+0 -20443-4 0 9995 2 43571 86.3928 101.3209 0002029 89.4651 270.6778 14.34216410398092 IRIDIUM 165 1 43572U 18061D 26061.61262123 .00000091 00000+0 25606-4 0 9997 2 43572 86.3924 101.3841 0002173 96.6491 263.4952 14.34217760398119 IRIDIUM 155 1 43573U 18061E 26061.64433383 -.00000040 00000+0 -21327-4 0 9991 2 43573 86.3922 101.2447 0001950 92.6432 267.4987 14.34217550398087 IRIDIUM 154 1 43574U 18061F 26061.62532119 .00000292 00000+0 97184-4 0 9998 2 43574 86.3926 101.3816 0002188 98.9479 261.1965 14.34220996398138 IRIDIUM 163 1 43575U 18061G 26061.60627899 .00000049 00000+0 10391-4 0 9992 2 43575 86.3924 101.3084 0002258 91.5058 268.6396 14.34217719398100 IRIDIUM 156 1 43576U 18061H 26061.65067656 .00000066 00000+0 16675-4 0 9997 2 43576 86.3922 101.2967 0002030 93.4733 266.6695 14.34217887398103 IRIDIUM 164 1 43577U 18061J 26061.63164902 .00000114 00000+0 33661-4 0 9996 2 43577 86.3925 101.3435 0002325 98.0490 262.0970 14.34218286398140 IRIDIUM 159 1 43578U 18061K 26061.59993662 -.00000089 00000+0 -38964-4 0 9999 2 43578 86.3923 101.2953 0002276 92.4471 267.6985 14.34217283398104 IRIDIUM 180 1 43922U 19002A 26061.45989526 .00000046 00000+0 94230-5 0 9997 2 43922 86.3961 38.1876 0002314 86.4348 273.7113 14.34217703373695 IRIDIUM 176 1 43923U 19002B 26061.85748711 .00001288 00000+0 20032-3 0 9997 2 43923 86.6082 37.9795 0002348 87.5252 272.6234 14.72261783383606 IRIDIUM 168 1 43924U 19002C 26061.45355054 .00000352 00000+0 11853-3 0 9990 2 43924 86.3961 38.2645 0002228 86.8555 273.2895 14.34219714373674 IRIDIUM 173 1 43925U 19002D 26061.65016866 -.00000533 00000+0 -19726-3 0 9998 2 43925 86.3955 38.0757 0002078 80.3077 279.8353 14.34215136373687 IRIDIUM 169 1 43926U 19002E 26061.62325214 .00000326 00000+0 10019-3 0 9990 2 43926 86.4164 69.7450 0001612 73.6858 286.4517 14.38610251374900 IRIDIUM 172 1 43927U 19002F 26061.43452470 .00000076 00000+0 20188-4 0 9996 2 43927 86.3961 38.1733 0002364 87.0096 273.1370 14.34217773373667 IRIDIUM 175 1 43928U 19002G 26061.78493219 .00001255 00000+0 19510-3 0 9997 2 43928 86.1547 335.9345 0002194 112.7242 247.4207 14.72254758383584 IRIDIUM 171 1 43929U 19002H 26061.48526473 .00000091 00000+0 25373-4 0 9996 2 43929 86.3968 38.4467 0002032 91.4563 268.6866 14.34218021373669 IRIDIUM 170 1 43930U 19002J 26061.45586880 .00001292 00000+0 20098-3 0 9995 2 43930 86.6080 38.1505 0002610 91.6531 268.4985 14.72253949383557 IRIDIUM 167 1 43931U 19002K 26061.47892195 .00000019 00000+0 -21261-6 0 9990 2 43931 86.3958 38.1761 0001852 89.4639 270.6769 14.34217881373663 IRIDIUM 181 1 56726U 23068S 26061.61651272 .00000380 00000+0 10698-3 0 9997 2 56726 86.4462 101.3589 0002594 98.9823 261.1671 14.43313307147065 IRIDIUM 177 1 56727U 23068T 26061.37684037 .00001051 00000+0 13482-3 0 9996 2 56727 86.1991 19.4931 0002399 79.9044 280.2448 14.80233020150564 IRIDIUM 174 1 56728U 23068U 26061.64741873 .00001342 00000+0 20893-3 0 9996 2 56728 86.6087 38.2072 0002624 83.7503 276.4013 14.72256813150342 IRIDIUM 178 1 56729U 23068V 26061.56873912 .00000659 00000+0 83282-4 0 9990 2 56729 86.6480 69.9182 0002297 102.5418 257.6061 14.80241345150598 IRIDIUM 179 1 56730U 23068W 26061.56337579 .00000612 00000+0 77124-4 0 9993 2 56730 86.6717 78.5910 0002256 93.2841 266.8639 14.80237782150592